Location: Fort Worth
(32.7555°N, 97.3308°W)
Time: 20:56:11
(UTC-05:00)

ISS - Visible Passes

Search period start: 22 April 2019 00:00
Search period end: 02 May 2019 00:00
Orbit: 408 x 410 km, 51.6° (Epoch: 23 April)

Date Brightness Start Highest point End Pass type
(mag) Time Alt. Az. Time Alt. Az. Time Alt. Az.
24 Apr -1.4 06:18:37 10° S 06:21:05 20° SE 06:23:33 10° E visible
26 Apr -3.5 06:12:35 10° SW 06:15:50 64° SE 06:19:06 10° NE visible
27 Apr -2.2 05:23:36 20° S 05:25:06 28° SE 05:28:00 10° ENE visible
28 Apr -1.0 04:35:03 13° ESE 04:35:03 13° ESE 04:36:14 10° E visible
28 Apr -3.0 06:07:48 11° WSW 06:10:43 38° NW 06:13:50 10° NNE visible
29 Apr -3.9 05:19:08 52° SW 05:19:50 83° NW 05:23:09 10° NE visible
30 Apr -1.8 04:30:22 27° ENE 04:30:22 27° ENE 04:32:11 10° ENE visible
30 Apr -1.6 06:03:34 10° WNW 06:05:45 16° NNW 06:07:56 10° N visible
01 May -2.5 05:14:16 26° NW 05:14:43 27° NW 05:17:37 10° NNE visible
